Time,TemperatureF,DewpointF,PressureIn,WindDirection,WindDirectionDegrees,WindSpeedMPH,WindSpeedGustMPH,Humidity,HourlyPrecipIn,Conditions,Clouds,dailyrainin,SolarRadiationWatts/m^2,SoftwareType,DateUTC
2013-07-02 00:06:00,73.9,55.7,29.81,NNE,33,3.0,5.0,53,0.00,CLR,,0.00,0.0,WeatherDisplay:10.37,2013-07-01 22:06:00,
2013-07-02 00:16:00,73.9,55.7,29.81,NE,43,0.0,2.0,53,0.00,CLR,,0.00,0.0,WeatherDisplay:10.37,2013-07-01 22:16:00,
2013-07-02 00:26:00,73.9,55.7,29.84,ENE,59,2.0,3.0,53,0.00,CLR,,0.00,0.0,WeatherDisplay:10.37,2013-07-01 22:26:00,
2013-07-02 00:36:00,73.9,55.7,29.82,ENE,66,0.0,2.0,53,0.00,CLR,,0.00,0.0,WeatherDisplay:10.37,2013-07-01 22:36:00,
2013-07-02 00:46:00,73.9,55.7,29.81,ENE,68,0.0,2.0,53,0.00,CLR,,0.00,0.0,WeatherDisplay:10.37,2013-07-01 22:46:00,
2013-07-02 00:56:00,73.9,55.7,29.81,ENE,68,1.0,2.0,53,0.00,CLR,,0.00,0.0,WeatherDisplay:10.37,2013-07-01 22:56:00,
2013-07-02 01:06:00,73.9,55.7,29.81,ENE,68,0.0,2.0,53,0.00,CLR,,0.00,0.0,WeatherDisplay:10.37,2013-07-01 23:06:00,
2013-07-02 01:16:00,73.9,55.7,29.81,SE,137,0.0,2.0,53,0.00,CLR,,0.00,0.0,WeatherDisplay:10.37,2013-07-01 23:16:00,
2013-07-02 01:26:00,73.9,55.7,29.81,ESE,110,1.0,2.0,53,0.00,CLR,,0.00,0.0,WeatherDisplay:10.37,2013-07-01 23:26:00,
2013-07-02 01:36:00,73.9,55.7,29.81,ESE,113,2.0,3.0,53,0.00,CLR,,0.00,0.0,WeatherDisplay:10.37,2013-07-01 23:36:00,
2013-07-02 01:46:00,73.9,55.7,29.81,ESE,108,2.0,3.0,53,0.00,CLR,,0.00,0.0,WeatherDisplay:10.37,2013-07-01 23:46:00,
2013-07-02 01:56:00,73.9,55.7,29.81,East,101,2.0,4.0,53,0.00,CLR,,0.00,0.0,WeatherDisplay:10.37,2013-07-01 23:56:00,
2013-07-02 02:06:00,73.9,55.7,29.81,ESE,109,2.0,5.0,53,0.00,CLR,,0.00,0.0,WeatherDisplay:10.37,2013-07-02 00:06:00,
2013-07-02 02:16:00,73.9,55.7,29.81,ESE,109,3.0,5.0,53,0.00,CLR,,0.00,0.0,WeatherDisplay:10.37,2013-07-02 00:16:00,
2013-07-02 02:26:00,73.9,55.7,29.81,ESE,108,2.0,4.0,53,0.00,CLR,,0.00,0.0,WeatherDisplay:10.37,2013-07-02 00:26:00,
2013-07-02 02:36:00,73.9,55.7,29.81,ESE,116,0.0,2.0,53,0.00,CLR,,0.00,0.0,WeatherDisplay:10.37,2013-07-02 00:36:00,
2013-07-02 02:46:00,73.9,55.7,29.81,East,93,1.0,2.0,53,0.00,CLR,,0.00,0.0,WeatherDisplay:10.37,2013-07-02 00:46:00,
2013-07-02 02:56:00,73.9,55.7,29.81,East,96,1.0,3.0,53,0.00,CLR,,0.00,0.0,WeatherDisplay:10.37,2013-07-02 00:56:00,
2013-07-02 03:06:00,73.9,55.7,29.81,ENE,72,2.0,3.0,53,0.00,CLR,,0.00,0.0,WeatherDisplay:10.37,2013-07-02 01:06:00,
2013-07-02 03:16:00,73.9,55.7,29.81,NE,47,2.0,3.0,53,0.00,CLR,,0.00,0.0,WeatherDisplay:10.37,2013-07-02 01:16:00,
2013-07-02 03:26:00,73.9,55.7,29.78,North,355,2.0,3.0,53,0.00,CLR,,0.00,0.0,WeatherDisplay:10.37,2013-07-02 01:26:00,
2013-07-02 03:36:00,73.9,55.7,29.78,NNE,16,1.0,3.0,53,0.00,CLR,,0.00,0.0,WeatherDisplay:10.37,2013-07-02 01:36:00,
2013-07-02 03:46:00,73.9,55.7,29.78,NNE,22,0.0,2.0,53,0.00,CLR,,0.00,0.0,WeatherDisplay:10.37,2013-07-02 01:46:00,
2013-07-02 03:56:00,73.9,55.7,29.81,NNE,22,2.0,4.0,53,0.00,CLR,,0.00,0.0,WeatherDisplay:10.37,2013-07-02 01:56:00,
2013-07-02 04:06:00,73.9,55.7,29.79,NE,50,2.0,3.0,53,0.00,CLR,,0.00,0.0,WeatherDisplay:10.37,2013-07-02 02:06:00,
2013-07-02 04:16:00,73.9,55.7,29.78,East,79,1.0,3.0,53,0.00,CLR,,0.00,0.0,WeatherDisplay:10.37,2013-07-02 02:16:00,
2013-07-02 04:26:00,73.9,55.7,29.78,ESE,110,2.0,3.0,53,0.00,CLR,,0.00,0.0,WeatherDisplay:10.37,2013-07-02 02:26:00,
2013-07-02 04:36:00,73.9,55.7,29.78,ESE,117,0.0,2.0,53,0.00,CLR,,0.00,0.0,WeatherDisplay:10.37,2013-07-02 02:36:00,
2013-07-02 04:46:00,73.9,55.7,29.78,East,94,1.0,2.0,53,0.00,CLR,,0.00,0.0,WeatherDisplay:10.37,2013-07-02 02:46:00,
2013-07-02 04:56:00,73.9,55.7,29.78,ENE,64,2.0,4.0,53,0.00,CLR,,0.00,0.0,WeatherDisplay:10.37,2013-07-02 02:56:00,
2013-07-02 05:06:00,73.9,55.7,29.78,ENE,76,2.0,4.0,53,0.00,CLR,,0.00,0.0,WeatherDisplay:10.37,2013-07-02 03:06:00,
2013-07-02 05:16:00,73.9,55.7,29.78,ENE,64,1.0,2.0,53,0.00,CLR,,0.00,0.0,WeatherDisplay:10.37,2013-07-02 03:16:00,
2013-07-02 05:26:00,73.9,55.7,29.78,East,83,1.0,2.0,53,0.00,CLR,,0.00,0.0,WeatherDisplay:10.37,2013-07-02 03:26:00,
2013-07-02 05:36:00,73.9,55.7,29.81,East,90,0.0,2.0,53,0.00,CLR,,0.00,0.0,WeatherDisplay:10.37,2013-07-02 03:36:00,
2013-07-02 05:46:00,73.9,55.7,29.81,ENE,69,2.0,3.0,53,0.00,CLR,,0.00,0.0,WeatherDisplay:10.37,2013-07-02 03:46:00,
2013-07-02 05:56:00,73.9,55.7,29.81,ENE,68,2.0,3.0,53,0.00,CLR,,0.00,0.0,WeatherDisplay:10.37,2013-07-02 03:56:00,
2013-07-02 06:06:00,73.9,55.7,29.79,ENE,78,1.0,2.0,53,0.00,CLR,,0.00,0.0,WeatherDisplay:10.37,2013-07-02 04:06:00,
2013-07-02 06:16:00,73.9,55.7,29.78,East,80,2.0,3.0,53,0.00,CLR,,0.00,0.0,WeatherDisplay:10.37,2013-07-02 04:16:00,
2013-07-02 06:26:00,73.9,55.7,29.81,ENE,76,1.0,3.0,53,0.00,CLR,,0.00,0.0,WeatherDisplay:10.37,2013-07-02 04:26:00,
2013-07-02 06:36:00,73.9,55.7,29.81,ENE,68,1.0,2.0,53,0.00,CLR,,0.00,0.0,WeatherDisplay:10.37,2013-07-02 04:36:00,
2013-07-02 06:46:00,73.9,55.7,29.81,ENE,62,1.0,3.0,53,0.00,CLR,,0.00,0.0,WeatherDisplay:10.37,2013-07-02 04:46:00,
2013-07-02 06:56:00,73.9,55.7,29.81,NE,39,3.0,5.0,53,0.00,CLR,,0.00,0.0,WeatherDisplay:10.37,2013-07-02 04:56:00,
2013-07-02 07:06:00,73.9,55.7,29.81,NNE,29,3.0,4.0,53,0.00,CLR,,0.00,0.0,WeatherDisplay:10.37,2013-07-02 05:06:00,
2013-07-02 07:16:00,73.9,55.7,29.81,NNE,14,3.0,3.0,53,0.00,CLR,,0.00,0.0,WeatherDisplay:10.37,2013-07-02 05:16:00,
2013-07-02 07:26:00,73.9,55.7,29.81,NNE,13,1.0,2.0,53,0.00,CLR,,0.00,0.0,WeatherDisplay:10.37,2013-07-02 05:26:00,
2013-07-02 07:36:00,73.9,55.7,29.81,North,9,1.0,2.0,53,0.00,OVC,,0.00,0.0,WeatherDisplay:10.37,2013-07-02 05:36:00,
2013-07-02 07:46:00,73.9,55.7,29.81,NNE,20,1.0,2.0,53,0.00,OVC,,0.00,0.0,WeatherDisplay:10.37,2013-07-02 05:46:00,
2013-07-02 07:56:00,73.9,55.7,29.81,SW,226,0.0,2.0,53,0.00,OVC,,0.00,0.0,WeatherDisplay:10.37,2013-07-02 05:56:00,
2013-07-02 08:06:00,73.9,55.7,29.83,NW,319,1.0,3.0,53,0.00,OVC,,0.00,0.0,WeatherDisplay:10.37,2013-07-02 06:06:00,
2013-07-02 08:16:00,73.9,55.7,29.84,South,182,3.0,4.0,53,0.00,OVC,,0.00,0.0,WeatherDisplay:10.37,2013-07-02 06:16:00,
2013-07-02 08:26:00,73.9,55.7,29.84,SSE,165,2.0,5.0,53,0.00,OVC,,0.00,0.0,WeatherDisplay:10.37,2013-07-02 06:26:00,
2013-07-02 08:36:00,73.9,55.7,29.84,SW,230,3.0,5.0,53,0.00,OVC,,0.00,0.0,WeatherDisplay:10.37,2013-07-02 06:36:00,
2013-07-02 08:46:00,73.9,55.7,29.84,SSW,211,3.0,6.0,53,0.00,OVC,,0.00,0.0,WeatherDisplay:10.37,2013-07-02 06:46:00,
2013-07-02 08:56:00,73.9,55.7,29.84,SSW,204,2.0,6.0,53,0.00,OVC,,0.00,0.0,WeatherDisplay:10.37,2013-07-02 06:56:00,
2013-07-02 09:06:00,73.9,55.7,29.86,SSW,197,2.0,5.0,53,0.00,OVC,,0.00,0.0,WeatherDisplay:10.37,2013-07-02 07:06:00,
2013-07-02 09:16:00,73.9,55.7,29.87,SW,221,2.0,5.0,53,0.00,OVC,,0.00,0.0,WeatherDisplay:10.37,2013-07-02 07:16:00,
2013-07-02 09:26:00,73.9,55.7,29.84,South,189,2.0,5.0,53,0.00,OVC,,0.00,0.0,WeatherDisplay:10.37,2013-07-02 07:26:00,
2013-07-02 09:36:00,73.9,55.7,29.84,SW,215,5.0,6.0,53,0.00,OVC,,0.00,0.0,WeatherDisplay:10.37,2013-07-02 07:36:00,
2013-07-02 09:46:00,73.9,55.7,29.84,SW,223,3.0,5.0,53,0.00,OVC,,0.00,0.0,WeatherDisplay:10.37,2013-07-02 07:46:00,
2013-07-02 09:56:00,73.9,55.7,29.84,WSW,241,1.0,4.0,53,0.00,OVC,,0.00,0.0,WeatherDisplay:10.37,2013-07-02 07:56:00,
2013-07-02 10:06:00,73.9,55.7,29.84,SSW,206,2.0,4.0,53,0.00,OVC,,0.00,0.0,WeatherDisplay:10.37,2013-07-02 08:06:00,
2013-07-02 10:16:00,73.9,55.7,29.84,SSW,205,2.0,6.0,53,0.00,OVC,,0.00,0.0,WeatherDisplay:10.37,2013-07-02 08:16:00,
2013-07-02 10:26:00,73.9,55.7,29.84,SW,228,3.0,6.0,53,0.00,OVC,,0.00,0.0,WeatherDisplay:10.37,2013-07-02 08:26:00,
2013-07-02 10:36:00,73.9,55.7,29.86,SSW,203,3.0,6.0,53,0.00,OVC,,0.00,0.0,WeatherDisplay:10.37,2013-07-02 08:36:00,
2013-07-02 10:46:00,73.9,55.7,29.87,SW,222,2.0,5.0,53,0.00,OVC,,0.00,0.0,WeatherDisplay:10.37,2013-07-02 08:46:00,
2013-07-02 10:56:00,73.9,55.7,29.87,WSW,239,5.0,7.0,53,0.00,OVC,,0.00,0.0,WeatherDisplay:10.37,2013-07-02 08:56:00,
2013-07-02 11:06:00,73.9,55.7,29.87,SSW,207,5.0,6.0,53,0.00,OVC,,0.00,0.0,WeatherDisplay:10.37,2013-07-02 09:06:00,
2013-07-02 11:16:00,73.9,55.7,29.87,SW,223,3.0,6.0,53,0.00,OVC,,0.00,0.0,WeatherDisplay:10.37,2013-07-02 09:16:00,
2013-07-02 11:26:00,73.9,55.7,29.87,SSW,203,6.0,9.0,53,0.00,OVC,,0.00,0.0,WeatherDisplay:10.37,2013-07-02 09:26:00,
2013-07-02 11:36:00,73.9,55.7,29.87,SSE,164,3.0,7.0,53,0.00,OVC,,0.00,0.0,WeatherDisplay:10.37,2013-07-02 09:36:00,
2013-07-02 11:46:00,73.9,55.7,29.87,South,187,3.0,6.0,53,0.00,OVC,,0.00,0.0,WeatherDisplay:10.37,2013-07-02 09:46:00,
2013-07-02 11:56:00,73.9,55.7,29.87,SSW,206,5.0,7.0,53,0.00,OVC,,0.00,0.0,WeatherDisplay:10.37,2013-07-02 09:56:00,
2013-07-02 12:06:00,73.9,55.7,29.87,SSW,206,5.0,7.0,53,0.00,OVC,,0.00,0.0,WeatherDisplay:10.37,2013-07-02 10:06:00,
2013-07-02 12:16:00,73.9,55.7,29.87,SSW,205,2.0,6.0,53,0.00,OVC,,0.00,0.0,WeatherDisplay:10.37,2013-07-02 10:16:00,
2013-07-02 12:26:00,73.9,55.7,29.87,SSE,148,3.0,8.0,53,0.00,OVC,,0.00,0.0,WeatherDisplay:10.37,2013-07-02 10:26:00,
2013-07-02 12:36:00,73.9,55.7,29.87,South,184,3.0,8.0,53,0.00,OVC,,0.00,0.0,WeatherDisplay:10.37,2013-07-02 10:36:00,
2013-07-02 12:46:00,73.9,55.7,29.87,South,174,6.0,8.0,53,0.00,OVC,,0.00,0.0,WeatherDisplay:10.37,2013-07-02 10:46:00,
2013-07-02 12:56:00,73.9,55.7,29.87,SSW,195,6.0,8.0,53,0.00,OVC,,0.00,0.0,WeatherDisplay:10.37,2013-07-02 10:56:00,
2013-07-02 13:06:00,73.9,55.7,29.87,SSW,205,5.0,7.0,53,0.00,FEW,,0.00,0.0,WeatherDisplay:10.37,2013-07-02 11:06:00,
2013-07-02 13:16:00,73.9,55.7,29.87,SW,225,5.0,8.0,53,0.00,FEW,,0.00,0.0,WeatherDisplay:10.37,2013-07-02 11:16:00,
2013-07-02 13:26:00,73.9,55.7,29.87,South,175,6.0,7.0,53,0.00,FEW,,0.00,0.0,WeatherDisplay:10.37,2013-07-02 11:26:00,
2013-07-02 13:36:00,73.9,55.7,29.87,SSW,193,3.0,8.0,53,0.00,FEW,,0.00,0.0,WeatherDisplay:10.37,2013-07-02 11:36:00,
2013-07-02 13:46:00,73.9,55.7,29.87,SSW,194,3.0,7.0,53,0.00,FEW,,0.00,0.0,WeatherDisplay:10.37,2013-07-02 11:46:00,
2013-07-02 13:56:00,73.9,55.7,29.87,SSW,196,3.0,7.0,53,0.00,FEW,,0.00,0.0,WeatherDisplay:10.37,2013-07-02 11:56:00,
2013-07-02 14:06:00,73.9,55.7,29.87,South,178,6.0,9.0,53,0.00,FEW,,0.00,0.0,WeatherDisplay:10.37,2013-07-02 12:06:00,
2013-07-02 14:16:00,73.9,55.7,29.87,SW,228,5.0,8.0,53,0.00,FEW,,0.00,0.0,WeatherDisplay:10.37,2013-07-02 12:16:00,
2013-07-02 14:26:00,73.9,55.7,29.87,SW,217,5.0,9.0,53,0.00,FEW,,0.00,0.0,WeatherDisplay:10.37,2013-07-02 12:26:00,
2013-07-02 14:36:00,73.9,55.7,29.87,SSW,211,3.0,9.0,53,0.00,FEW,,0.00,0.0,WeatherDisplay:10.37,2013-07-02 12:36:00,
2013-07-02 14:46:00,73.9,55.7,29.87,SW,218,3.0,7.0,53,0.00,FEW,,0.00,0.0,WeatherDisplay:10.37,2013-07-02 12:46:00,
2013-07-02 14:56:00,73.9,55.7,29.84,SSE,152,3.0,9.0,53,0.00,FEW,,0.00,0.0,WeatherDisplay:10.37,2013-07-02 12:56:00,
2013-07-02 15:06:00,73.9,55.7,29.84,SSW,212,5.0,8.0,53,0.00,OVC,,0.00,0.0,WeatherDisplay:10.37,2013-07-02 13:06:00,
2013-07-02 15:16:00,73.9,55.7,29.84,SSW,202,5.0,7.0,53,0.00,OVC,,0.00,0.0,WeatherDisplay:10.37,2013-07-02 13:16:00,
2013-07-02 15:26:00,73.9,55.7,29.84,South,183,5.0,8.0,53,0.00,OVC,,0.00,0.0,WeatherDisplay:10.37,2013-07-02 13:26:00,
2013-07-02 15:36:00,73.9,55.7,29.84,SSW,209,3.0,7.0,53,0.00,OVC,,0.00,0.0,WeatherDisplay:10.37,2013-07-02 13:36:00,
2013-07-02 15:46:00,73.9,55.7,29.84,SW,219,5.0,7.0,53,0.00,OVC,,0.00,0.0,WeatherDisplay:10.37,2013-07-02 13:46:00,
2013-07-02 15:56:00,73.9,55.7,29.84,SSW,205,5.0,9.0,53,0.00,OVC,,0.00,0.0,WeatherDisplay:10.37,2013-07-02 13:56:00,
2013-07-02 16:06:00,73.9,55.7,29.86,SSW,205,6.0,8.0,53,0.00,OVC,,0.00,0.0,WeatherDisplay:10.37,2013-07-02 14:06:00,
2013-07-02 16:16:00,73.9,55.7,29.87,SSW,205,6.0,8.0,53,0.00,OVC,,0.00,0.0,WeatherDisplay:10.37,2013-07-02 14:16:00,
2013-07-02 16:26:00,73.9,55.7,29.84,SSW,213,5.0,7.0,53,0.00,OVC,,0.00,0.0,WeatherDisplay:10.37,2013-07-02 14:26:00,
2013-07-02 16:36:00,73.9,55.7,29.84,SSW,201,3.0,8.0,53,0.00,OVC,,0.00,0.0,WeatherDisplay:10.37,2013-07-02 14:36:00,
2013-07-02 16:46:00,73.9,55.7,29.84,SSW,200,3.0,9.0,53,0.00,OVC,,0.00,0.0,WeatherDisplay:10.37,2013-07-02 14:46:00,
2013-07-02 16:56:00,73.9,55.7,29.84,South,186,5.0,7.0,53,0.00,OVC,,0.00,0.0,WeatherDisplay:10.37,2013-07-02 14:56:00,
2013-07-02 17:06:00,73.9,55.7,29.84,SSW,198,6.0,8.0,53,0.00,OVC,,0.00,0.0,WeatherDisplay:10.37,2013-07-02 15:06:00,
2013-07-02 17:16:00,73.9,55.7,29.84,South,190,6.0,7.0,53,0.00,OVC,,0.00,0.0,WeatherDisplay:10.37,2013-07-02 15:16:00,
2013-07-02 17:26:00,73.9,55.7,29.84,SW,232,3.0,6.0,53,0.00,OVC,,0.00,0.0,WeatherDisplay:10.37,2013-07-02 15:26:00,
2013-07-02 17:36:00,73.9,55.7,29.84,South,173,2.0,7.0,53,0.00,OVC,,0.00,0.0,WeatherDisplay:10.37,2013-07-02 15:36:00,
2013-07-02 17:46:00,73.9,55.7,29.84,South,190,3.0,7.0,53,0.00,OVC,,0.00,0.0,WeatherDisplay:10.37,2013-07-02 15:46:00,
2013-07-02 17:56:00,73.9,55.7,29.84,South,171,5.0,6.0,53,0.00,OVC,,0.00,0.0,WeatherDisplay:10.37,2013-07-02 15:56:00,
2013-07-02 18:06:00,73.9,55.7,29.84,South,182,3.0,7.0,53,0.00,OVC,,0.00,0.0,WeatherDisplay:10.37,2013-07-02 16:06:00,
2013-07-02 18:16:00,73.9,55.7,29.84,SW,217,3.0,6.0,53,0.00,OVC,,0.00,0.0,WeatherDisplay:10.37,2013-07-02 16:16:00,
2013-07-02 18:26:00,73.9,55.7,29.84,SW,223,3.0,7.0,53,0.00,OVC,,0.00,0.0,WeatherDisplay:10.37,2013-07-02 16:26:00,
2013-07-02 18:36:00,73.9,55.7,29.84,South,183,5.0,6.0,53,0.00,OVC,,0.00,0.0,WeatherDisplay:10.37,2013-07-02 16:36:00,
2013-07-02 18:46:00,73.9,55.7,29.84,South,169,2.0,6.0,53,0.00,CLR,,0.00,0.0,WeatherDisplay:10.37,2013-07-02 16:46:00,
2013-07-02 18:56:00,73.9,55.7,29.87,South,170,2.0,5.0,53,0.00,CLR,,0.00,0.0,WeatherDisplay:10.37,2013-07-02 16:56:00,
2013-07-02 19:06:00,73.9,55.7,29.89,South,186,2.0,4.0,53,0.00,CLR,,0.00,0.0,WeatherDisplay:10.37,2013-07-02 17:06:00,
2013-07-02 19:16:00,73.9,55.7,29.90,SSW,203,1.0,6.0,53,0.00,CLR,,0.00,0.0,WeatherDisplay:10.37,2013-07-02 17:16:00,
2013-07-02 19:26:00,73.9,55.7,29.90,South,177,2.0,5.0,53,0.00,CLR,,0.00,0.0,WeatherDisplay:10.37,2013-07-02 17:26:00,
2013-07-02 19:36:00,73.9,55.7,29.90,SSE,153,2.0,3.0,53,0.00,CLR,,0.00,0.0,WeatherDisplay:10.37,2013-07-02 17:36:00,
2013-07-02 19:46:00,73.9,55.7,29.90,South,190,3.0,6.0,53,0.00,CLR,,0.00,0.0,WeatherDisplay:10.37,2013-07-02 17:46:00,
2013-07-02 19:56:00,73.9,55.7,29.87,SSE,166,3.0,6.0,53,0.00,CLR,,0.00,0.0,WeatherDisplay:10.37,2013-07-02 17:56:00,
2013-07-02 20:06:00,73.9,55.7,29.85,SSE,150,2.0,3.0,53,0.00,CLR,,0.00,0.0,WeatherDisplay:10.37,2013-07-02 18:06:00,
2013-07-02 20:16:00,73.9,55.7,29.84,SE,136,1.0,4.0,53,0.00,CLR,,0.00,0.0,WeatherDisplay:10.37,2013-07-02 18:16:00,
2013-07-02 20:26:00,73.9,55.7,29.84,South,169,2.0,5.0,53,0.00,CLR,,0.00,0.0,WeatherDisplay:10.37,2013-07-02 18:26:00,
2013-07-02 20:36:00,73.9,55.7,29.84,SSE,165,1.0,5.0,53,0.00,CLR,,0.00,0.0,WeatherDisplay:10.37,2013-07-02 18:36:00,
2013-07-02 20:46:00,73.9,55.7,29.84,South,170,2.0,5.0,53,0.00,CLR,,0.00,0.0,WeatherDisplay:10.37,2013-07-02 18:46:00,
2013-07-02 20:56:00,73.9,55.7,29.84,SSE,161,2.0,4.0,53,0.00,CLR,,0.00,0.0,WeatherDisplay:10.37,2013-07-02 18:56:00,
2013-07-02 21:06:00,73.9,55.7,29.82,South,170,1.0,2.0,53,0.00,CLR,,0.00,0.0,WeatherDisplay:10.37,2013-07-02 19:06:00,
2013-07-02 21:16:00,73.9,55.7,29.81,SE,126,1.0,3.0,53,0.00,CLR,,0.00,0.0,WeatherDisplay:10.37,2013-07-02 19:16:00,
2013-07-02 21:26:00,73.9,55.7,29.81,ESE,122,1.0,4.0,53,0.00,CLR,,0.00,0.0,WeatherDisplay:10.37,2013-07-02 19:26:00,
2013-07-02 21:36:00,73.9,55.7,29.81,SE,138,1.0,3.0,53,0.00,CLR,,0.00,0.0,WeatherDisplay:10.37,2013-07-02 19:36:00,
2013-07-02 21:46:00,73.9,55.7,29.81,ESE,117,2.0,3.0,53,0.00,CLR,,0.00,0.0,WeatherDisplay:10.37,2013-07-02 19:46:00,
2013-07-02 21:56:00,73.9,55.7,29.81,East,100,2.0,5.0,53,0.00,CLR,,0.00,0.0,WeatherDisplay:10.37,2013-07-02 19:56:00,
2013-07-02 22:06:00,73.9,55.7,29.81,ESE,114,2.0,5.0,53,0.00,CLR,,0.00,0.0,WeatherDisplay:10.37,2013-07-02 20:06:00,
2013-07-02 22:16:00,73.9,55.7,29.81,ESE,118,2.0,4.0,53,0.00,CLR,,0.00,0.0,WeatherDisplay:10.37,2013-07-02 20:16:00,
2013-07-02 22:26:00,73.9,55.7,29.81,ESE,105,1.0,3.0,53,0.00,CLR,,0.00,0.0,WeatherDisplay:10.37,2013-07-02 20:26:00,
2013-07-02 22:36:00,73.9,55.7,29.81,ENE,78,1.0,2.0,53,0.00,CLR,,0.00,0.0,WeatherDisplay:10.37,2013-07-02 20:36:00,
2013-07-02 22:46:00,73.9,55.7,29.81,SE,125,1.0,2.0,53,0.00,CLR,,0.00,0.0,WeatherDisplay:10.37,2013-07-02 20:46:00,
2013-07-02 22:56:00,73.9,55.7,29.81,ESE,112,2.0,4.0,53,0.00,CLR,,0.00,0.0,WeatherDisplay:10.37,2013-07-02 20:56:00,
2013-07-02 23:06:00,73.9,55.7,29.81,East,90,2.0,3.0,53,0.00,CLR,,0.00,0.0,WeatherDisplay:10.37,2013-07-02 21:06:00,
2013-07-02 23:16:00,73.9,55.7,29.81,NNE,18,2.0,3.0,53,0.00,CLR,,0.00,0.0,WeatherDisplay:10.37,2013-07-02 21:16:00,
2013-07-02 23:26:00,73.9,55.7,29.81,North,357,1.0,3.0,53,0.00,CLR,,0.00,0.0,WeatherDisplay:10.37,2013-07-02 21:26:00,
2013-07-02 23:36:00,73.9,55.7,29.81,NNE,18,3.0,5.0,53,0.00,CLR,,0.00,0.0,WeatherDisplay:10.37,2013-07-02 21:36:00,
2013-07-02 23:46:00,73.9,55.7,29.81,NNE,18,3.0,5.0,53,0.00,CLR,,0.00,0.0,WeatherDisplay:10.37,2013-07-02 21:46:00,
2013-07-02 23:56:00,73.9,55.7,29.81,NNE,23,3.0,5.0,53,0.00,CLR,,0.00,0.0,WeatherDisplay:10.37,2013-07-02 21:56:00,